Location: Antoign�
(47.0844°N, 0.1131°W)
Time: 06:51:15
(UTC+00:00)

ERS-2 - Pass Details

Date: 03 March 2021
Orbit: 492 x 496 km, 98.6° (Epoch: 13 April)

Event Time Altitude Azimuth Distance (km) Brightness Sun altitude
Rises 18:22:58 0° 22° (NNE) 2,594 5.5 -6.6°
Reaches altitude 10° 18:25:12 10° 32° (NNE) 1,706 4.5 -7.0°
Maximum altitude 18:28:33 34° 99° (E) 842 2.8 -7.5°
Drops below altitude 10° 18:31:54 10° 165° (SSE) 1,693 4.7 -8.1°
Sets 18:34:06 0° 175° (S) 2,570 5.7 -8.5°
